Location: Kelshall
(52.0000°N, 0.0500°W)
Time: 22:09:22
(UTC+00:00)

ATLAS 2AS CENTAUR R/B - Pass Details

Date: 24 January 2021
Orbit: 947 x 1265 km, 63.7° (Epoch: 13 February)

Event Time Altitude Azimuth Distance (km) Brightness Sun altitude
Rises 17:00:07 0° 243° (WSW) 4,214 9.0 -4.4°
Reaches altitude 10° 17:03:00 10° 247° (WSW) 3,251 7.2 -4.8°
Maximum altitude 17:10:48 59° 326° (NW) 1,429 3.5 -5.9°
Drops below altitude 10° 17:18:23 10° 45° (NE) 3,156 4.6 -6.9°
Enters shadow 17:19:28 - 47° (NE) 3,517 4.8 -7.1°
